TAIP08 YCBG-YCBG

Flight info

Callsign TAIP08
Flight time 0h 57m
Altitude 3500
Route VFR
Aircraft EC35/L-VGD/C

Departure

Time 2026-04-24 10:31
Airport Cambridge Aerodrome (YCBG)

Arrival

Time 2026-04-24 11:29
Airport Cambridge Aerodrome (YCBG)
Time Latitude Longitude Altitude Speed Heading
2026-04-24 10:16 -42.82944 147.47731 38 ft 0 kts 321°
2026-04-24 10:29 -42.82941 147.47729 42 ft 3 kts 338°
2026-04-24 10:29 -42.82921 147.47762 52 ft 10 kts 94°
2026-04-24 10:29 -42.82946 147.47890 56 ft 17 kts 88°
2026-04-24 10:29 -42.82984 147.48053 64 ft 18 kts 103°
2026-04-24 10:30 -42.83029 147.48230 65 ft 21 kts 92°
2026-04-24 10:30 -42.83044 147.48385 61 ft 6 kts
2026-04-24 10:30 -42.83000 147.48366 89 ft 14 kts 300°
2026-04-24 10:30 -42.82854 147.48186 253 ft 48 kts 314°
2026-04-24 10:31 -42.82510 147.47785 405 ft 80 kts 312°
2026-04-24 10:31 -42.82060 147.47246 407 ft 90 kts 314°
2026-04-24 10:31 -42.81625 147.46565 523 ft 104 kts 283°
2026-04-24 10:31 -42.81744 147.45619 770 ft 110 kts 224°
2026-04-24 10:32 -42.82241 147.44719 753 ft 123 kts 228°
2026-04-24 10:32 -42.82755 147.43759 1049 ft 125 kts 206°
2026-04-24 10:32 -42.83467 147.43577 1086 ft 104 kts 130°
2026-04-24 10:32 -42.84156 147.43988 1100 ft 103 kts 138°
2026-04-24 10:33 -42.84728 147.44485 1080 ft 89 kts 127°
2026-04-24 10:33 -42.85036 147.45127 1065 ft 81 kts 94°
2026-04-24 10:33 -42.85139 147.45887 1024 ft 86 kts 80°
2026-04-24 10:33 -42.85130 147.46695 1017 ft 84 kts 72°
2026-04-24 10:34 -42.85211 147.47543 1006 ft 94 kts 80°
2026-04-24 10:34 -42.85129 147.48428 925 ft 99 kts 40°
2026-04-24 10:34 -42.84538 147.48934 678 ft 109 kts 10°
2026-04-24 10:34 -42.83795 147.49210 322 ft 108 kts 338°
2026-04-24 10:35 -42.83242 147.48854 233 ft 84 kts 294°
2026-04-24 10:35 -42.82897 147.48217 95 ft 79 kts 307°
2026-04-24 10:35 -42.82499 147.47767 130 ft 73 kts 313°
2026-04-24 10:35 -42.82037 147.47405 198 ft 78 kts 314°
2026-04-24 10:36 -42.81669 147.46918 426 ft 67 kts 257°
2026-04-24 10:36 -42.81797 147.46311 655 ft 77 kts 220°
2026-04-24 10:36 -42.82158 147.45680 771 ft 90 kts 200°
2026-04-24 10:36 -42.82686 147.45575 1006 ft 81 kts 140°
2026-04-24 10:37 -42.83202 147.45928 1024 ft 85 kts 126°
2026-04-24 10:37 -42.83653 147.46513 990 ft 93 kts 111°
2026-04-24 10:37 -42.84062 147.47258 836 ft 105 kts 118°
2026-04-24 10:37 -42.84389 147.48154 563 ft 101 kts 86°
2026-04-24 10:38 -42.84245 147.49011 414 ft 92 kts 18°
2026-04-24 10:38 -42.83712 147.49488 364 ft 89 kts 334°
2026-04-24 10:38 -42.83274 147.49063 351 ft 86 kts 290°
2026-04-24 10:38 -42.82955 147.48329 117 ft 85 kts 303°
2026-04-24 10:39 -42.82606 147.47804 81 ft 69 kts 329°
2026-04-24 10:39 -42.82278 147.47435 159 ft 56 kts 323°
2026-04-24 10:39 -42.81985 147.47100 224 ft 54 kts 324°
2026-04-24 10:39 -42.81684 147.46825 272 ft 51 kts 335°
2026-04-24 10:40 -42.81319 147.46595 372 ft 70 kts 319°
2026-04-24 10:40 -42.80934 147.46075 519 ft 84 kts 288°
2026-04-24 10:40 -42.81056 147.45295 732 ft 95 kts 229°
2026-04-24 10:40 -42.81440 147.44481 849 ft 108 kts 226°
2026-04-24 10:41 -42.82029 147.43866 1101 ft 110 kts 175°
2026-04-24 10:41 -42.82700 147.44380 959 ft 122 kts 115°
2026-04-24 10:41 -42.83245 147.45263 816 ft 119 kts 127°
2026-04-24 10:41 -42.83810 147.46118 742 ft 122 kts 125°
2026-04-24 10:42 -42.84315 147.46976 649 ft 111 kts 115°
2026-04-24 10:42 -42.84190 147.47855 446 ft 98 kts 41°
2026-04-24 10:42 -42.83724 147.48454 279 ft 83 kts 35°
2026-04-24 10:42 -42.83283 147.48778 205 ft 64 kts 343°
2026-04-24 10:43 -42.82991 147.48424 143 ft 62 kts 293°
2026-04-24 10:43 -42.82727 147.47969 56 ft 59 kts 326°
2026-04-24 10:43 -42.82427 147.47534 65 ft 71 kts 333°
2026-04-24 10:43 -42.82086 147.47048 290 ft 71 kts 328°
2026-04-24 10:44 -42.81779 147.46525 403 ft 69 kts 318°
2026-04-24 10:44 -42.81596 147.45912 600 ft 77 kts 279°
2026-04-24 10:44 -42.81834 147.45270 822 ft 78 kts 230°
2026-04-24 10:44 -42.82349 147.45076 923 ft 79 kts 151°
2026-04-24 10:45 -42.82845 147.45457 964 ft 85 kts 126°
2026-04-24 10:45 -42.83263 147.46000 980 ft 83 kts 123°
2026-04-24 10:45 -42.83646 147.46572 991 ft 83 kts 124°
2026-04-24 10:45 -42.84035 147.47170 995 ft 85 kts 124°
2026-04-24 10:46 -42.84372 147.47793 922 ft 78 kts 102°
2026-04-24 10:46 -42.84293 147.48427 687 ft 66 kts 38°
2026-04-24 10:46 -42.83927 147.48801 579 ft 67 kts 30°
2026-04-24 10:46 -42.83513 147.48876 469 ft 56 kts 338°
2026-04-24 10:47 -42.83192 147.48563 237 ft 59 kts 321°
2026-04-24 10:47 -42.82895 147.48181 133 ft 59 kts 323°
2026-04-24 10:47 -42.82588 147.47809 84 ft 56 kts 320°
2026-04-24 10:47 -42.82281 147.47412 201 ft 67 kts 319°
2026-04-24 10:48 -42.81930 147.46967 396 ft 70 kts 321°
2026-04-24 10:48 -42.81592 147.46510 483 ft 67 kts 320°
2026-04-24 10:48 -42.81325 147.45987 627 ft 74 kts 293°
2026-04-24 10:48 -42.81454 147.45301 876 ft 78 kts 221°
2026-04-24 10:49 -42.81801 147.44703 985 ft 81 kts 227°
2026-04-24 10:49 -42.82264 147.44325 1029 ft 80 kts 182°
2026-04-24 10:49 -42.82777 147.44587 1043 ft 82 kts 134°
2026-04-24 10:49 -42.83170 147.45157 1063 ft 83 kts 128°
2026-04-24 10:50 -42.83551 147.45756 1065 ft 84 kts 128°
2026-04-24 10:50 -42.83924 147.46349 1065 ft 82 kts 128°
2026-04-24 10:50 -42.84226 147.46993 1064 ft 80 kts 95°
2026-04-24 10:50 -42.84105 147.47661 931 ft 71 kts 45°
2026-04-24 10:51 -42.83804 147.48178 686 ft 69 kts 43°
2026-04-24 10:51 -42.83482 147.48591 428 ft 57 kts 16°
2026-04-24 10:51 -42.83124 147.48489 247 ft 58 kts 319°
2026-04-24 10:51 -42.82827 147.48101 161 ft 59 kts 323°
2026-04-24 10:52 -42.82523 147.47725 123 ft 60 kts 323°
2026-04-24 10:52 -42.82198 147.47322 156 ft 71 kts 320°
2026-04-24 10:52 -42.81845 147.46822 356 ft 72 kts 319°
2026-04-24 10:52 -42.81515 147.46324 457 ft 73 kts 315°
2026-04-24 10:53 -42.81438 147.45610 766 ft 82 kts 263°
2026-04-24 10:53 -42.81771 147.44994 936 ft 81 kts 227°
2026-04-24 10:53 -42.82256 147.44590 1006 ft 87 kts 195°
2026-04-24 10:53 -42.82822 147.44776 1035 ft 86 kts 142°
2026-04-24 10:54 -42.83256 147.45412 1060 ft 93 kts 128°
2026-04-24 10:54 -42.83675 147.46088 1065 ft 94 kts 128°
2026-04-24 10:54 -42.84090 147.46750 1066 ft 92 kts 128°
2026-04-24 10:54 -42.84495 147.47428 1007 ft 91 kts 111°
2026-04-24 10:55 -42.84544 147.48212 735 ft 80 kts 66°
2026-04-24 10:55 -42.84273 147.48848 606 ft 78 kts 39°
2026-04-24 10:55 -42.83831 147.49247 509 ft 73 kts
2026-04-24 10:55 -42.83394 147.49018 268 ft 73 kts 309°
2026-04-24 10:56 -42.83071 147.48446 166 ft 77 kts 316°
2026-04-24 10:56 -42.82725 147.47907 112 ft 78 kts 334°
2026-04-24 10:56 -42.82289 147.47353 261 ft 92 kts 326°
2026-04-24 10:56 -42.81837 147.46783 610 ft 85 kts 324°
2026-04-24 10:57 -42.81464 147.46126 838 ft 93 kts 296°
2026-04-24 10:57 -42.81523 147.45272 954 ft 94 kts 223°
2026-04-24 10:57 -42.82065 147.44754 992 ft 102 kts 175°
2026-04-24 10:57 -42.82767 147.44913 1001 ft 107 kts 131°
2026-04-24 10:58 -42.83351 147.45523 1022 ft 104 kts 120°
2026-04-24 10:58 -42.83831 147.46279 1027 ft 106 kts 116°
2026-04-24 10:58 -42.84278 147.47067 1025 ft 104 kts 115°
2026-04-24 10:58 -42.84657 147.47875 1010 ft 99 kts 97°
2026-04-24 10:59 -42.84618 147.48729 681 ft 86 kts 51°
2026-04-24 10:59 -42.84342 147.49078 518 ft 82 kts 21°
2026-04-24 10:59 -42.83588 147.48970 371 ft 85 kts 333°
2026-04-24 10:59 -42.83277 147.48644 334 ft 85 kts 323°
2026-04-24 11:00 -42.82779 147.48194 317 ft 93 kts 332°
2026-04-24 11:00 -42.82275 147.47558 328 ft 100 kts 315°
2026-04-24 11:00 -42.81814 147.46841 424 ft 100 kts 314°
2026-04-24 11:00 -42.81431 147.46065 462 ft 103 kts 294°
2026-04-24 11:01 -42.81456 147.45077 492 ft 110 kts 254°
2026-04-24 11:01 -42.81887 147.44328 546 ft 91 kts 226°
2026-04-24 11:01 -42.82459 147.44071 548 ft 90 kts 175°
2026-04-24 11:01 -42.83027 147.44399 548 ft 88 kts 148°
2026-04-24 11:02 -42.83426 147.45028 565 ft 88 kts 121°
2026-04-24 11:02 -42.83770 147.45719 571 ft 89 kts 120°
2026-04-24 11:02 -42.84111 147.46401 563 ft 87 kts 118°
2026-04-24 11:02 -42.84468 147.47082 571 ft 88 kts 120°
2026-04-24 11:03 -42.84734 147.47810 571 ft 83 kts 90°
2026-04-24 11:03 -42.84602 147.48502 566 ft 75 kts 51°
2026-04-24 11:03 -42.84226 147.48977 569 ft 75 kts 32°
2026-04-24 11:03 -42.83774 147.49236 403 ft 68 kts 352°
2026-04-24 11:04 -42.83394 147.48866 234 ft 71 kts 319°
2026-04-24 11:04 -42.83061 147.48409 156 ft 65 kts 321°
2026-04-24 11:04 -42.82732 147.47988 105 ft 66 kts 323°
2026-04-24 11:04 -42.82413 147.47561 173 ft 63 kts 321°
2026-04-24 11:05 -42.82096 147.47132 387 ft 65 kts 321°
2026-04-24 11:05 -42.81883 147.46605 488 ft 68 kts 265°
2026-04-24 11:05 -42.82095 147.46024 521 ft 74 kts 226°
2026-04-24 11:05 -42.82531 147.45719 537 ft 75 kts 156°
2026-04-24 11:06 -42.82991 147.46041 543 ft 80 kts 120°
2026-04-24 11:06 -42.83413 147.46552 556 ft 78 kts 120°
2026-04-24 11:06 -42.83774 147.47079 556 ft 76 kts 119°
2026-04-24 11:06 -42.84101 147.47644 562 ft 76 kts 118°
2026-04-24 11:07 -42.83968 147.48866 399 ft 67 kts 25°
2026-04-24 11:07 -42.83642 147.49220 321 ft 55 kts 357°
2026-04-24 11:07 -42.83299 147.48952 298 ft 66 kts 307°
2026-04-24 11:08 -42.83063 147.48470 193 ft 56 kts 310°
2026-04-24 11:08 -42.82796 147.48071 125 ft 59 kts 321°
2026-04-24 11:08 -42.82493 147.47687 102 ft 61 kts 321°
2026-04-24 11:08 -42.82106 147.47197 263 ft 84 kts 319°
2026-04-24 11:09 -42.81711 147.46640 414 ft 79 kts 317°
2026-04-24 11:09 -42.81341 147.46095 476 ft 77 kts 316°
2026-04-24 11:09 -42.81079 147.45457 503 ft 84 kts 281°
2026-04-24 11:09 -42.81288 147.44715 522 ft 89 kts 214°
2026-04-24 11:10 -42.81871 147.44470 529 ft 91 kts 153°
2026-04-24 11:10 -42.82432 147.44897 535 ft 95 kts 122°
2026-04-24 11:10 -42.82873 147.45554 544 ft 95 kts 116°
2026-04-24 11:10 -42.83290 147.46233 546 ft 92 kts 117°
2026-04-24 11:11 -42.83666 147.46929 543 ft 90 kts 116°
2026-04-24 11:11 -42.84005 147.47674 546 ft 93 kts 106°
2026-04-24 11:11 -42.83995 147.48456 408 ft 74 kts 56°
2026-04-24 11:11 -42.83628 147.48753 172 ft 60 kts 358°
2026-04-24 11:12 -42.83208 147.48618 71 ft 63 kts 342°
2026-04-24 11:12 -42.82796 147.48281 260 ft 86 kts 307°
2026-04-24 11:12 -42.82316 147.47702 387 ft 96 kts 309°
2026-04-24 11:12 -42.81833 147.47069 497 ft 97 kts 304°
2026-04-24 11:13 -42.81711 147.46204 714 ft 98 kts 236°
2026-04-24 11:13 -42.82162 147.45557 840 ft 98 kts 177°
2026-04-24 11:13 -42.82810 147.45675 908 ft 95 kts 122°
2026-04-24 11:13 -42.83224 147.46355 850 ft 97 kts 107°
2026-04-24 11:14 -42.83503 147.47186 749 ft 93 kts 101°
2026-04-24 11:14 -42.83805 147.47940 651 ft 90 kts 116°
2026-04-24 11:14 -42.83995 147.48704 543 ft 81 kts 63°
2026-04-24 11:14 -42.83849 147.49351 543 ft 64 kts 16°
2026-04-24 11:15 -42.83557 147.49803 524 ft 59 kts
2026-04-24 11:15 -42.83252 147.49581 636 ft 55 kts 291°
2026-04-24 11:15 -42.83025 147.49125 709 ft 59 kts 298°
2026-04-24 11:15 -42.82761 147.48623 687 ft 70 kts 299°
2026-04-24 11:16 -42.82510 147.48079 593 ft 67 kts 299°
2026-04-24 11:16 -42.82266 147.47522 541 ft 70 kts 310°
2026-04-24 11:16 -42.82167 147.46876 522 ft 76 kts 255°
2026-04-24 11:16 -42.82547 147.46420 515 ft 77 kts 171°
2026-04-24 11:17 -42.83042 147.46635 498 ft 81 kts 113°
2026-04-24 11:17 -42.83484 147.47197 523 ft 85 kts 113°
2026-04-24 11:17 -42.83882 147.47758 532 ft 81 kts 114°
2026-04-24 11:17 -42.83999 147.48413 500 ft 68 kts 56°
2026-04-24 11:18 -42.83688 147.48777 389 ft 62 kts
2026-04-24 11:18 -42.83254 147.48685 328 ft 66 kts 325°
2026-04-24 11:18 -42.82946 147.48253 187 ft 61 kts 317°
2026-04-24 11:18 -42.82634 147.47836 122 ft 66 kts 320°
2026-04-24 11:19 -42.82294 147.47430 95 ft 66 kts 320°
2026-04-24 11:19 -42.81973 147.46975 261 ft 68 kts 320°
2026-04-24 11:19 -42.81769 147.46389 426 ft 75 kts 262°
2026-04-24 11:19 -42.82050 147.45813 497 ft 79 kts 184°
2026-04-24 11:20 -42.82571 147.45862 519 ft 78 kts 120°
2026-04-24 11:20 -42.82967 147.46428 533 ft 83 kts 111°
2026-04-24 11:20 -42.83333 147.47045 547 ft 83 kts 110°
2026-04-24 11:20 -42.83672 147.47642 551 ft 76 kts 111°
2026-04-24 11:21 -42.83950 147.48224 504 ft 68 kts 91°
2026-04-24 11:21 -42.83836 147.48742 265 ft 57 kts 39°
2026-04-24 11:21 -42.83497 147.49026 195 ft 59 kts
2026-04-24 11:21 -42.83164 147.48725 167 ft 65 kts 304°
2026-04-24 11:22 -42.82907 147.48268 147 ft 59 kts 319°
2026-04-24 11:22 -42.82635 147.47869 134 ft 57 kts 322°
2026-04-24 11:22 -42.82330 147.47484 259 ft 61 kts 324°
2026-04-24 11:22 -42.82026 147.47087 428 ft 61 kts 322°
2026-04-24 11:23 -42.81917 147.46503 508 ft 72 kts 263°
2026-04-24 11:23 -42.82269 147.46018 548 ft 76 kts 197°
2026-04-24 11:23 -42.82770 147.46170 549 ft 77 kts 136°
2026-04-24 11:23 -42.83051 147.46753 560 ft 72 kts 124°
2026-04-24 11:24 -42.83416 147.47239 567 ft 76 kts 132°
2026-04-24 11:24 -42.83806 147.47697 568 ft 75 kts 134°
2026-04-24 11:24 -42.84102 147.48239 536 ft 70 kts 94°
2026-04-24 11:24 -42.83991 147.48813 399 ft 58 kts 45°
2026-04-24 11:25 -42.83680 147.49119 325 ft 58 kts
2026-04-24 11:25 -42.83346 147.48866 212 ft 58 kts 314°
2026-04-24 11:25 -42.83075 147.48449 146 ft 60 kts 319°
2026-04-24 11:25 -42.82778 147.48052 105 ft 59 kts 322°
2026-04-24 11:26 -42.82474 147.47666 89 ft 60 kts 322°
2026-04-24 11:26 -42.82194 147.47233 275 ft 66 kts 293°
2026-04-24 11:26 -42.82286 147.46629 399 ft 71 kts 211°
2026-04-24 11:26 -42.82753 147.46441 456 ft 76 kts 137°
2026-04-24 11:27 -42.83212 147.46810 471 ft 78 kts 119°
2026-04-24 11:27 -42.83625 147.47305 487 ft 78 kts 118°
2026-04-24 11:27 -42.83998 147.47828 494 ft 74 kts 117°
2026-04-24 11:27 -42.84223 147.48417 492 ft 70 kts 84°
2026-04-24 11:28 -42.84054 147.48982 498 ft 61 kts 47°
2026-04-24 11:28 -42.83725 147.49258 364 ft 57 kts 342°
2026-04-24 11:28 -42.83449 147.48920 217 ft 59 kts 309°
2026-04-24 11:28 -42.83169 147.48517 183 ft 56 kts 322°
2026-04-24 11:29 -42.82879 147.48173 161 ft 56 kts 323°
2026-04-24 11:29 -42.82594 147.47814 129 ft 55 kts 321°
2026-04-24 11:29 -42.82390 147.47549 62 ft 30 kts 319°
2026-04-24 11:29 -42.82412 147.47404 51 ft 25 kts 154°
2026-04-24 11:30 -42.82618 147.47496 52 ft 39 kts 130°
2026-04-24 11:30 -42.82823 147.47645 75 ft 23 kts 129°
2026-04-24 11:30 -42.82886 147.47696 68 ft 1 kts 134°
2026-04-24 11:30 -42.82885 147.47694 66 ft 1 kts 134°
2026-04-24 11:31 -42.82884 147.47695 47 ft 0 kts 188°
2026-04-24 11:31 -42.82885 147.47694 36 ft 0 kts 194°